CW5367 Weather Reports


Display with metric or nautical units.
time (UTC)temp
F
wind
direction
speed
MPH
gust
MPH
rain 1hr
in
rain 24hr
in
rain mn
in
humidity
%
barometer
mb
20260505193051 80 177 1.0 15.0 0.00 0.01 0.01 43 1008.3
20260505192557 81 179 1.0 13.0 0.00 0.01 0.01 42 1008.3
20260505192054 81 0 0.0 16.0 0.00 0.01 0.01 45 1008.3
20260505191556 81 200 3.0 16.0 0.00 0.01 0.01 42 1008.4
20260505191053 81 186 3.0 12.0 0.00 0.01 0.01 42 1008.5
20260505190553 81 200 1.0 10.0 0.00 0.01 0.01 42 1008.5
20260505190056 81 0 1.0 10.0 0.00 0.01 0.01 42 1008.6
20260505185553 81 145 0.0 16.0 0.00 0.01 0.01 45 1008.7
20260505185053 81 205 2.0 16.0 0.00 0.01 0.01 45 1008.7
20260505184554 81 188 3.0 16.0 0.00 0.01 0.01 41 1008.7
20260505184054 81 207 2.0 14.0 0.00 0.01 0.01 44 1008.7
20260505183553 81 0 3.0 13.0 0.00 0.01 0.01 44 1008.8
20260505183055 80 224 3.0 11.0 0.00 0.01 0.01 44 1008.9
20260505182555 80 0 1.0 10.0 0.00 0.01 0.01 46 1008.9
20260505182054 80 0 0.0 9.0 0.00 0.01 0.01 47 1009.1
20260505181555 80 179 1.0 10.0 0.00 0.01 0.01 46 1009.2
20260505181052 81 173 1.0 10.0 0.00 0.01 0.01 44 1009.1
20260505180553 81 190 2.0 7.0 0.00 0.01 0.01 42 1009.1
20260505175553 81 0 1.0 10.0 0.00 0.01 0.01 43 1009.3
20260505175055 81 161 1.0 12.0 0.00 0.01 0.01 43 1009.3
20260505174556 80 0 0.0 12.0 0.00 0.01 0.01 46 1009.3
20260505174053 80 0 2.0 13.0 0.00 0.01 0.01 41 1009.4
20260505173552 80 185 5.0 18.0 0.00 0.01 0.01 43 1009.2
20260505173056 80 128 3.0 18.0 0.00 0.01 0.01 44 1009.3
20260505172556 80 0 0.0 6.0 0.00 0.01 0.01 47 1009.4
20260505172052 80 0 0.0 10.0 0.00 0.01 0.01 48 1009.4
20260505171558 79 196 0.0 12.0 0.00 0.01 0.01 48 1009.6
20260505171053 79 0 1.0 12.0 0.00 0.01 0.01 47 1009.6
20260505170553 80 153 0.0 6.0 0.00 0.01 0.01 50 1009.5
20260505170055 79 0 0.0 8.0 0.00 0.01 0.01 49 1009.8
20260505165552 79 0 0.0 8.0 0.00 0.01 0.01 46 1010.0
20260505165052 79 0 0.0 7.0 0.00 0.01 0.01 49 1009.9
20260505164556 79 177 0.0 7.0 0.00 0.01 0.01 53 1010.0
20260505164055 79 0 0.0 5.0 0.00 0.01 0.01 52 1010.1
20260505163554 79 0 0.0 5.0 0.00 0.01 0.01 50 1010.1
20260505163052 79 0 0.0 5.0 0.00 0.01 0.01 48 1010.1
20260505162553 78 0 0.0 4.0 0.00 0.01 0.01 57 1010.2
20260505162053 78 0 0.0 7.0 0.00 0.01 0.01 56 1010.3
20260505161552 77 0 0.0 7.0 0.00 0.01 0.01 55 1010.3
20260505161053 77 0 0.0 4.0 0.00 0.01 0.01 52 1010.3
20260505160552 77 0 0.0 4.0 0.00 0.01 0.01 52 1010.4
20260505153057 76 0 0.0 0.0 0.00 0.01 0.01 55 1010.8
20260505152556 75 0 0.0 0.0 0.00 0.01 0.01 54 1010.8
20260505152053 75 0 0.0 0.0 0.00 0.01 0.01 56 1010.9
20260505151553 74 0 0.0 2.0 0.00 0.01 0.01 58 1010.8
20260505151053 74 0 0.0 2.0 0.00 0.01 0.01 56 1010.9
20260505150553 74 0 0.0 0.0 0.00 0.01 0.01 58 1011.0
20260505140553 70 0 0.0 2.0 0.00 0.01 0.01 64 1011.5
20260505140109 69 0 0.0 2.0 0.00 0.01 0.01 66 1011.4
20260505124554 64 0 0.0 2.0 0.00 0.01 0.01 75 1011.4
20260505124053 63 0 0.0 4.0 0.00 0.01 0.01 75 1011.4
20260505123552 63 0 0.0 4.0 0.00 0.01 0.01 77 1011.4
20260505123101 62 0 0.0 4.0 0.00 0.01 0.01 76 1011.4
20260505122552 62 0 0.0 1.0 0.00 0.01 0.01 79 1011.4
20260505122052 61 0 0.0 1.0 0.00 0.01 0.01 80 1011.4
20260505121555 60 0 0.0 1.0 0.00 0.01 0.01 83 1011.3
20260505121053 60 0 0.0 0.0 0.00 0.01 0.01 88 1011.2
20260505120552 59 0 0.0 0.0 0.00 0.01 0.01 89 1011.2
20260505120107 58 0 0.0 0.0 0.00 0.01 0.01 92 1011.1
20260505115552 58 0 0.0 0.0 0.00 0.01 0.01 93 1011.1
20260505115053 57 0 0.0 0.0 0.00 0.01 0.01 95 1011.0
20260505114558 56 0 0.0 0.0 0.00 0.01 0.01 96 1011.1
20260505114054 55 0 0.0 0.0 0.00 0.01 0.01 95 1011.2
20260505113557 55 0 0.0 0.0 0.00 0.01 0.01 95 1011.2
20260505113105 54 0 0.0 0.0 0.00 0.01 0.01 96 1011.1
20260505112633 54 0 0.0 0.0 0.00 0.01 0.01 95 1011.2
20260505112052 53 0 0.0 0.0 0.00 0.01 0.01 95 1011.2
20260505111559 53 0 0.0 0.0 0.00 0.01 0.01 94 1011.3
20260505111052 53 0 0.0 0.0 0.00 0.01 0.01 94 1011.3
20260505110553 53 0 0.0 0.0 0.00 0.01 0.01 93 1011.1
20260505102052 54 0 0.0 0.0 0.01 0.01 0.01 91 1010.8
20260505101555 54 0 0.0 0.0 0.01 0.01 0.01 90 1011.0
20260505101052 54 0 0.0 0.0 0.01 0.01 0.01 90 1011.0
20260505100555 54 0 0.0 0.0 0.01 0.01 0.01 89 1011.0
20260505100055 55 0 0.0 0.0 0.01 0.01 0.01 89 1010.9
20260505095553 55 0 0.0 0.0 0.01 0.01 0.01 88 1010.8
20260505095055 55 0 0.0 0.0 0.01 0.01 0.01 87 1010.8
20260505094602 55 0 0.0 0.0 0.00 0.00 0.00 83 1010.8
20260505094053 55 0 0.0 0.0 0.00 0.00 0.00 79 1011.0
20260505093557 55 0 0.0 0.0 0.00 0.00 0.00 78 1010.9
20260505093057 55 0 0.0 0.0 0.00 0.00 0.00 78 1010.9
20260505092554 56 0 0.0 0.0 0.00 0.00 0.00 77 1010.9
20260505092053 56 0 0.0 0.0 0.00 0.00 0.00 76 1010.8
20260505091552 56 0 0.0 0.0 0.00 0.00 0.00 76 1010.6
20260505091055 56 0 0.0 0.0 0.00 0.00 0.00 76 1010.3
20260505090553 56 0 0.0 0.0 0.00 0.00 0.00 76 1010.3
20260505090058 56 0 0.0 0.0 0.00 0.00 0.00 76 1010.1
20260505085553 56 0 0.0 0.0 0.00 0.00 0.00 77 1010.2
20260505085053 56 0 0.0 0.0 0.00 0.00 0.00 77 1010.2
20260505084604 55 0 0.0 0.0 0.00 0.00 0.00 78 1010.2
20260505084053 55 0 0.0 0.0 0.00 0.00 0.00 77 1010.1
20260505083554 55 0 0.0 0.0 0.00 0.00 0.00 78 1010.1
20260505083105 55 0 0.0 0.0 0.00 0.00 0.00 78 1010.2
20260505082552 55 0 0.0 0.0 0.00 0.00 0.00 78 1010.2
20260505082052 55 0 0.0 0.0 0.00 0.00 0.00 78 1010.3
20260505081554 55 0 0.0 0.0 0.00 0.00 0.00 78 1010.3
20260505081052 55 0 0.0 0.0 0.00 0.00 0.00 78 1010.3
20260505080552 55 0 0.0 0.0 0.00 0.00 0.00 78 1010.3
20260505080054 56 0 0.0 0.0 0.00 0.00 0.00 77 1010.4
20260505075552 56 0 0.0 0.0 0.00 0.00 0.00 76 1010.4
20260505075052 56 0 0.0 0.0 0.00 0.00 0.00 76 1010.4
20260505074552 56 0 0.0 0.0 0.00 0.00 0.00 75 1010.3
20260505074052 56 0 0.0 0.0 0.00 0.00 0.00 74 1010.3
20260505073552 56 0 0.0 0.0 0.00 0.00 0.00 73 1010.2
20260505073057 57 0 0.0 0.0 0.00 0.00 0.00 73 1010.2
20260505072555 57 0 0.0 0.0 0.00 0.00 0.00 73 1010.1
20260505072054 57 0 0.0 0.0 0.00 0.00 0.00 73 1010.1
20260505071600 56 0 0.0 0.0 0.00 0.00 0.00 73 1010.2
20260505071052 56 0 0.0 0.0 0.00 0.00 0.00 74 1010.2
20260505070553 56 0 0.0 0.0 0.00 0.00 0.00 74 1010.2
20260505070104 56 0 0.0 0.0 0.00 0.00 0.00 74 1010.2
20260505065553 55 0 0.0 0.0 0.00 0.00 0.00 75 1010.2
20260505065052 55 0 0.0 0.0 0.00 0.00 0.00 76 1010.2
20260505064557 54 0 0.0 0.0 0.00 0.00 0.00 76 1010.3
20260505064053 54 0 0.0 0.0 0.00 0.00 0.00 77 1010.4
20260505063553 54 0 0.0 0.0 0.00 0.00 0.00 77 1010.4
20260505063054 54 0 0.0 0.0 0.00 0.00 0.00 77 1010.3
20260505062555 54 0 0.0 0.0 0.00 0.00 0.00 77 1010.4
20260505062056 54 0 0.0 0.0 0.00 0.00 0.00 77 1010.3
20260505061613 54 0 0.0 0.0 0.00 0.00 0.00 77 1010.3
20260505061053 54 0 0.0 0.0 0.00 0.00 0.00 76 1010.3
20260505060553 54 0 0.0 0.0 0.00 0.00 0.00 76 1010.3
20260505055553 54 0 0.0 0.0 0.00 0.00 0.00 75 1010.3
20260505055053 54 0 0.0 0.0 0.00 0.00 0.00 75 1010.3
20260505054559 54 0 0.0 0.0 0.00 0.00 0.00 74 1010.4
20260505054053 54 0 0.0 0.0 0.00 0.00 0.00 74 1010.5
20260505053554 54 0 0.0 0.0 0.00 0.00 0.00 74 1010.4
20260505053055 54 0 0.0 0.0 0.00 0.00 0.00 73 1010.5
20260505052553 55 0 0.0 0.0 0.00 0.00 0.00 73 1010.4
20260505052053 55 0 0.0 0.0 0.00 0.00 0.00 72 1010.5
20260505051558 55 0 0.0 0.0 0.00 0.00 0.00 72 1010.6
20260505051052 55 0 0.0 0.0 0.00 0.00 0.00 71 1010.6
20260505050551 55 0 0.0 0.0 0.00 0.00 0.00 71 1010.6
20260505041601 55 0 0.0 0.0 0.00 0.00 0.00 68 1010.7
20260505041048 55 0 0.0 0.0 0.00 0.00 0.00 68 1010.7
20260505040548 56 0 0.0 0.0 0.00 0.00 0.00 67 1010.6
20260505035551 56 0 0.0 0.0 0.00 0.00 0.00 65 1010.7
20260505035050 57 0 0.0 0.0 0.00 0.00 0.00 64 1010.6
20260505034559 57 0 0.0 0.0 0.00 0.00 0.00 64 1010.6
20260505034051 57 0 0.0 0.0 0.00 0.00 0.00 64 1010.5
20260505033548 58 0 0.0 0.0 0.00 0.00 0.00 62 1010.4
20260505033102 59 0 0.0 0.0 0.00 0.00 0.00 62 1010.6
20260505032552 59 0 0.0 0.0 0.00 0.00 0.00 60 1010.6
20260505032051 60 0 0.0 0.0 0.00 0.00 0.00 59 1010.7
20260505031559 60 0 0.0 0.0 0.00 0.00 0.00 58 1010.7
20260505031047 61 0 0.0 0.0 0.00 0.00 0.00 56 1010.8
20260505030555 61 0 0.0 0.0 0.00 0.00 0.00 56 1010.7
20260505030058 61 0 0.0 0.0 0.00 0.00 0.00 56 1010.7
20260505025551 62 0 0.0 1.0 0.00 0.00 0.00 56 1010.7
20260505025051 62 0 0.0 4.0 0.00 0.00 0.00 55 1010.8
20260505024557 62 0 0.0 5.0 0.00 0.00 0.00 54 1010.7
20260505024051 62 0 0.0 5.0 0.00 0.00 0.00 53 1010.7
20260505023551 62 0 0.0 4.0 0.00 0.00 0.00 54 1010.6
20260505023054 62 188 0.0 4.0 0.00 0.00 0.00 53 1010.7
20260505022551 62 0 0.0 9.0 0.00 0.00 0.00 54 1010.8
20260505022050 62 0 0.0 9.0 0.00 0.00 0.00 53 1010.7
20260505021601 61 0 0.0 4.0 0.00 0.00 0.00 55 1010.8
20260505021048 60 0 0.0 7.0 0.00 0.00 0.00 57 1010.8
20260505020548 60 0 0.0 7.0 0.00 0.00 0.00 58 1010.7
20260505020055 59 0 0.0 0.0 0.00 0.00 0.00 59 1010.8
20260505015551 59 0 0.0 0.0 0.00 0.00 0.00 58 1010.7
20260505015051 59 0 0.0 0.0 0.00 0.00 0.00 58 1010.7
20260505014553 58 0 0.0 0.0 0.00 0.00 0.00 60 1010.6
20260505014051 58 0 0.0 0.0 0.00 0.00 0.00 59 1010.6
20260505013551 58 0 0.0 0.0 0.00 0.00 0.00 61 1010.5
20260505013055 58 0 0.0 0.0 0.00 0.00 0.00 60 1010.5
20260505012553 58 0 0.0 0.0 0.00 0.00 0.00 61 1010.6
20260505012051 58 0 0.0 0.0 0.00 0.00 0.00 61 1010.6
20260505011600 58 0 0.0 0.0 0.00 0.00 0.00 61 1010.5
20260505011048 58 0 0.0 0.0 0.00 0.00 0.00 62 1010.4
20260505010553 58 0 0.0 0.0 0.00 0.00 0.00 62 1010.4
20260505010107 58 0 0.0 0.0 0.00 0.00 0.00 61 1010.3
20260505005551 58 0 0.0 0.0 0.00 0.00 0.00 60 1010.2
20260505005048 59 0 0.0 0.0 0.00 0.00 0.00 61 1010.1
20260505004557 59 0 0.0 0.0 0.00 0.00 0.00 60 1010.1
20260505004050 59 0 0.0 0.0 0.00 0.00 0.00 60 1010.1
20260505003550 60 0 0.0 0.0 0.00 0.00 0.00 58 1010.1
20260505003054 60 0 0.0 0.0 0.00 0.00 0.00 58 1010.1
20260505002547 61 0 0.0 0.0 0.00 0.00 0.00 57 1010.0
20260505002052 61 0 0.0 0.0 0.00 0.00 0.00 57 1009.9
20260505001555 62 0 0.0 0.0 0.00 0.00 0.00 53 1009.9
20260505001051 63 0 0.0 0.0 0.00 0.00 0.00 54 1009.9
20260505000551 63 0 0.0 0.0 0.00 0.00 0.00 54 1009.8
20260505000100 64 0 0.0 1.0 0.00 0.00 0.00 53 1009.8
20260504235549 64 0 0.0 1.0 0.00 0.00 0.00 52 1009.7
20260504235050 64 0 0.0 0.0 0.00 0.00 0.00 52 1009.7
20260504234606 65 0 0.0 0.0 0.00 0.00 0.00 51 1009.6
20260504234050 65 0 0.0 1.0 0.00 0.00 0.00 49 1009.5
20260504233551 65 0 0.0 1.0 0.00 0.00 0.00 49 1009.5
20260504233058 66 0 0.0 2.0 0.00 0.00 0.00 48 1009.4
20260504232552 66 0 0.0 4.0 0.00 0.00 0.00 48 1009.4
20260504232051 66 0 0.0 4.0 0.00 0.00 0.00 49 1009.3
20260504231554 67 0 0.0 3.0 0.00 0.00 0.00 47 1009.2
20260504231051 67 0 0.0 5.0 0.00 0.00 0.00 47 1009.2
20260504230551 67 0 0.0 5.0 0.00 0.00 0.00 46 1009.1
20260504230055 67 225 0.0 3.0 0.00 0.00 0.00 47 1009.1
20260504225549 67 0 0.0 6.0 0.00 0.00 0.00 46 1009.0
20260504225054 67 0 0.0 6.0 0.00 0.00 0.00 46 1008.9
20260504224602 67 201 0.0 1.0 0.00 0.00 0.00 48 1008.8
20260504224052 68 0 0.0 1.0 0.00 0.00 0.00 48 1008.9
20260504223551 68 0 0.0 1.0 0.00 0.00 0.00 48 1008.9
20260504223104 68 0 0.0 1.0 0.00 0.00 0.00 47 1008.9
20260504222552 68 0 0.0 1.0 0.00 0.00 0.00 45 1009.0
20260504222051 68 0 0.0 8.0 0.00 0.00 0.00 44 1009.0
20260504221559 69 0 0.0 8.0 0.00 0.00 0.00 45 1009.0
20260504221052 69 209 0.0 8.0 0.00 0.00 0.00 42 1009.0
20260504220552 69 0 0.0 4.0 0.00 0.00 0.00 44 1009.0
20260504215552 69 0 0.0 4.0 0.00 0.00 0.00 42 1009.1
20260504215050 70 0 0.0 4.0 0.00 0.00 0.00 43 1009.1
20260504214559 70 0 0.0 4.0 0.00 0.00 0.00 43 1009.1
20260504214048 70 0 0.0 5.0 0.00 0.00 0.00 44 1009.2
20260504213548 71 0 0.0 5.0 0.00 0.00 0.00 43 1009.1
20260504213110 71 0 0.0 1.0 0.00 0.00 0.00 41 1009.2
20260504212551 71 0 0.0 6.0 0.00 0.00 0.00 42 1009.1
20260504212048 71 0 0.0 6.0 0.00 0.00 0.00 42 1009.2
20260504211558 71 182 0.0 8.0 0.00 0.00 0.00 43 1009.2
20260504211052 71 0 0.0 8.0 0.00 0.00 0.00 43 1009.2
20260504210551 72 41 0.0 5.0 0.00 0.00 0.00 41 1009.3
20260504210059 72 0 0.0 2.0 0.00 0.00 0.00 43 1009.4
20260504205550 71 0 0.0 1.0 0.00 0.00 0.00 40 1009.4
20260504205051 71 0 0.0 5.0 0.00 0.00 0.00 44 1009.4
20260504204600 71 0 0.0 6.0 0.00 0.00 0.00 40 1009.4
20260504204050 71 0 0.0 6.0 0.00 0.00 0.00 41 1009.4
20260504203548 71 0 0.0 6.0 0.00 0.00 0.00 43 1009.4
20260504203052 71 0 0.0 9.0 0.00 0.00 0.00 43 1009.3
20260504202548 71 0 1.0 9.0 0.00 0.00 0.00 41 1009.3
20260504202051 71 0 0.0 5.0 0.00 0.00 0.00 39 1009.4
20260504201553 72 0 0.0 6.0 0.00 0.00 0.00 41 1009.4
20260504201048 72 0 0.0 6.0 0.00 0.00 0.00 42 1009.4
20260504200551 72 0 0.0 8.0 0.00 0.00 0.00 40 1009.5
20260504200054 71 0 0.0 8.0 0.00 0.00 0.00 41 1009.5
20260504195551 71 0 0.0 4.0 0.00 0.00 0.00 44 1009.5
20260504195052 72 0 0.0 7.0 0.00 0.00 0.00 39 1009.7
20260504194559 72 0 0.0 7.0 0.00 0.00 0.00 41 1009.9
20260504194052 72 185 0.0 6.0 0.00 0.00 0.00 39 1009.9
20260504193551 72 0 0.0 3.0 0.00 0.00 0.00 41 1010.0